W1WRA Weather Reports


time (UTC)temp
C
wind
direction
speed
KPH
gust
KPH
rain 1hr
cm
rain 24hr
cm
rain mn
cm
humidity
%
barometer
mb
20260507050521 9 26 1.6 4.8 0.00 0.33 0.00 92 1007.2
20260507045522 9 0.0 0.0 0.00 0.33 0.00 92 1007.0
20260507044522 10 25 0.0 0.0 0.00 0.33 0.00 91 1007.0
20260507043522 10 236 0.0 1.6 0.00 0.33 0.00 91 1007.0
20260507042522 10 4 0.0 3.2 0.00 0.33 0.00 92 1007.2
20260507041522 10 327 1.6 3.2 0.00 0.33 0.00 92 1007.2
20260507040522 10 353 1.6 3.2 0.00 0.33 0.00 93 1007.1
20260507035522 11 27 1.6 3.2 0.00 0.33 0.33 94 1007.0
20260507034523 11 62 1.6 4.8 0.03 0.33 0.33 95 1006.9
20260507033523 11 54 0.0 1.6 0.03 0.33 0.33 95 1006.8
20260507032524 11 47 0.0 1.6 0.03 0.33 0.33 95 1006.6
20260507031543 12 36 0.0 4.8 0.03 0.33 0.33 94 1006.5
20260507030523 12 12 0.0 3.2 0.03 0.33 0.33 93 1006.2
20260507025544 12 25 1.6 3.2 0.03 0.33 0.33 92 1006.3
20260507024544 13 332 3.2 6.4 0.00 0.30 0.30 92 1006.6
20260507023524 13 354 1.6 4.8 0.00 0.30 0.30 93 1006.4
20260507022524 13 290 1.6 4.8 0.00 0.30 0.30 94 1006.2
20260507021524 14 322 0.0 3.2 0.00 0.30 0.30 97 1005.9
20260507020524 14 0.0 0.0 0.00 0.30 0.30 98 1005.9
20260507015524 14 305 1.6 3.2 0.00 0.30 0.30 98 1005.7
20260507014525 14 270 0.0 0.0 0.00 0.30 0.30 98 1005.5
20260507013525 14 0.0 0.0 0.00 0.30 0.30 98 1005.4
20260507012525 14 240 0.0 1.6 0.00 0.30 0.30 98 1005.4
20260507011526 14 258 0.0 0.0 0.00 0.30 0.30 98 1005.5
20260507010545 14 0.0 0.0 0.00 0.30 0.30 98 1005.4
20260507005525 14 261 0.0 1.6 0.00 0.30 0.30 98 1005.5
20260507004525 14 0.0 0.0 0.00 0.30 0.30 98 1005.4
20260507003525 14 250 0.0 1.6 0.00 0.30 0.30 98 1005.2
20260507002545 14 272 0.0 1.6 0.00 0.30 0.30 98 1005.1
20260507001526 14 288 0.0 1.6 0.00 0.30 0.30 98 1005.2
20260507000546 14 251 0.0 3.2 0.00 0.30 0.30 98 1005.2
20260506235526 14 248 0.0 3.2 0.00 0.30 0.30 98 1005.0
20260506234526 14 253 0.0 1.6 0.00 0.30 0.30 97 1005.0
20260506233526 14 0.0 0.0 0.00 0.30 0.30 97 1004.9
20260506232527 14 0.0 0.0 0.00 0.30 0.30 97 1005.0
20260506231606 14 284 0.0 1.6 0.00 0.30 0.30 97 1005.0
20260506230527 14 123 0.0 1.6 0.00 0.30 0.30 97 1005.0
20260506225527 14 287 0.0 3.2 0.00 0.30 0.30 97 1005.2
20260506224527 15 265 0.0 1.6 0.00 0.30 0.30 97 1005.2
20260506223547 15 271 0.0 1.6 0.00 0.30 0.30 97 1005.2
20260506222527 15 257 0.0 1.6 0.00 0.30 0.30 97 1005.3
20260506221527 15 262 0.0 3.2 0.00 0.30 0.30 97 1005.4
20260506220528 15 0.0 0.0 0.00 0.30 0.30 97 1005.4
20260506215548 15 243 0.0 1.6 0.05 0.30 0.30 97 1005.4
20260506214528 15 259 0.0 3.2 0.05 0.30 0.30 96 1005.4
20260506213548 15 216 0.0 1.6 0.05 0.30 0.30 96 1005.4
20260506212528 15 261 0.0 1.6 0.05 0.30 0.30 96 1005.4
20260506211528 15 272 1.6 3.2 0.05 0.30 0.30 96 1005.5
20260506210528 15 282 1.6 3.2 0.05 0.30 0.28 96 1005.5
20260506205529 15 294 1.6 3.2 0.00 0.25 0.25 96 1005.6
20260506204549 15 284 1.6 4.8 0.03 0.25 0.25 95 1005.7
20260506203529 16 273 0.0 1.6 0.05 0.25 0.25 95 1005.7
20260506202609 16 276 0.0 3.2 0.05 0.25 0.25 95 1005.8
20260506201529 16 0.0 0.0 0.05 0.25 0.25 94 1005.9
20260506200530 16 270 0.0 3.2 0.05 0.25 0.25 94 1005.9
20260506195555 16 315 0.0 3.2 0.05 0.25 0.25 94 1006.1
20260506194530 16 244 0.0 3.2 0.03 0.23 0.23 93 1006.2
20260506193550 16 293 0.0 3.2 0.03 0.20 0.20 93 1006.3
20260506192515 16 282 0.0 1.6 0.03 0.20 0.20 93 1006.2
20260506191515 16 20 0.0 3.2 0.05 0.20 0.20 93 1005.9
20260506190515 16 0.0 0.0 0.10 0.20 0.20 93 1006.0
20260506185515 16 282 0.0 0.0 0.13 0.20 0.20 92 1006.3
20260506184515 16 0.0 0.0 0.18 0.20 0.20 92 1006.4
20260506183516 16 64 0.0 1.6 0.20 0.20 0.20 91 1006.7
20260506182516 16 0.0 0.0 0.18 0.18 0.18 89 1006.8
20260506181516 16 352 0.0 1.6 0.15 0.15 0.15 89 1007.0
20260506180516 17 210 0.0 1.6 0.10 0.13 0.10 86 1007.0
20260506175516 17 6 0.0 4.8 0.08 0.08 0.08 83 1007.3
20260506174517 18 254 1.6 4.8 0.03 0.03 0.03 76 1007.4
20260506173516 19 194 1.6 4.8 0.00 0.00 0.00 69 1007.2
20260506172517 20 228 3.2 4.8 0.00 0.00 0.00 64 1007.0
20260506171517 20 229 3.2 6.4 0.00 0.00 0.00 62 1006.9
20260506170518 21 257 3.2 6.4 0.00 0.00 0.00 61 1006.9
20260506165538 21 249 3.2 4.8 0.00 0.00 0.00 61 1007.0
20260506164518 20 271 1.6 6.4 0.00 0.00 0.00 62 1007.0
20260506163517 20 237 1.6 6.4 0.00 0.00 0.00 64 1007.1
20260506162518 20 303 0.0 1.6 0.00 0.00 0.00 66 1007.2
20260506161518 20 110 0.0 1.6 0.00 0.00 0.00 66 1007.3
20260506160518 20 253 0.0 1.6 0.00 0.00 0.00 65 1007.5
20260506155518 20 288 0.0 3.2 0.00 0.00 0.00 66 1007.8
20260506154518 20 269 0.0 3.2 0.00 0.00 0.00 66 1008.0
20260506153518 20 261 1.6 4.8 0.00 0.00 0.00 67 1008.1
20260506152519 20 258 1.6 6.4 0.00 0.00 0.00 66 1008.2
20260506151519 20 65 0.0 1.6 0.00 0.00 0.00 66 1008.4
20260506150519 20 283 1.6 4.8 0.00 0.00 0.00 66 1008.5
20260506145519 20 272 1.6 4.8 0.00 0.00 0.00 67 1008.2
20260506144519 20 266 1.6 4.8 0.00 0.00 0.00 66 1008.5
20260506143539 20 271 1.6 4.8 0.00 0.00 0.00 67 1008.4
20260506142520 20 245 1.6 3.2 0.00 0.00 0.00 69 1008.3
20260506141520 19 252 1.6 3.2 0.00 0.00 0.00 71 1008.3
20260506140519 18 272 0.0 3.2 0.00 0.00 0.00 72 1008.2
20260506135520 18 241 0.0 1.6 0.00 0.00 0.00 74 1008.1
20260506134520 17 345 0.0 3.2 0.00 0.00 0.00 74 1008.4
20260506133520 17 296 0.0 1.6 0.00 0.00 0.00 76 1008.6
20260506132521 17 233 1.6 4.8 0.00 0.00 0.00 76 1008.6
20260506131520 17 267 1.6 4.8 0.00 0.00 0.00 77 1008.7
20260506130521 17 20 0.0 4.8 0.00 0.00 0.00 77 1008.8
20260506125521 16 63 0.0 4.8 0.00 0.00 0.00 77 1008.7
20260506124622 16 360 0.0 4.8 0.00 0.00 0.00 78 1008.8
20260506123521 16 8 0.0 4.8 0.00 0.00 0.00 79 1008.8
20260506122521 16 260 0.0 3.2 0.00 0.00 0.00 79 1008.7
20260506121521 15 17 0.0 1.6 0.00 0.00 0.00 80 1008.7
20260506120602 15 250 0.0 1.6 0.00 0.00 0.00 80 1009.0
20260506115522 15 0.0 0.0 0.00 0.00 0.00 81 1009.0
20260506114521 15 288 0.0 1.6 0.00 0.00 0.00 82 1009.1
20260506113522 15 268 0.0 1.6 0.00 0.00 0.00 82 1009.2
20260506112542 14 242 0.0 3.2 0.00 0.00 0.00 82 1009.2
20260506111522 14 258 0.0 1.6 0.00 0.00 0.00 83 1009.3
20260506110522 13 252 0.0 3.2 0.00 0.00 0.00 85 1009.2
20260506105543 13 266 0.0 1.6 0.00 0.00 0.00 86 1009.2
20260506104522 13 0.0 0.0 0.00 0.00 0.00 86 1009.2
20260506103523 13 0.0 0.0 0.00 0.00 0.00 86 1009.3
20260506102523 13 0.0 0.0 0.00 0.00 0.00 86 1009.1
20260506101523 12 0.0 0.0 0.00 0.00 0.00 86 1009.0
20260506100523 12 0.0 0.0 0.00 0.00 0.00 85 1009.2
20260506095544 12 0.0 0.0 0.00 0.00 0.00 86 1009.1
20260506094544 12 248 0.0 0.0 0.00 0.00 0.00 86 1009.1
20260506093524 12 303 0.0 1.6 0.00 0.00 0.00 86 1009.0
20260506092524 12 266 0.0 1.6 0.00 0.00 0.00 85 1008.8
20260506091524 12 247 0.0 1.6 0.00 0.00 0.00 85 1009.1
20260506090544 12 0.0 0.0 0.00 0.00 0.00 85 1008.9
20260506085544 12 0.0 0.0 0.00 0.00 0.00 85 1009.0
20260506084525 12 0.0 0.0 0.00 0.00 0.00 85 1009.1
20260506083525 12 0.0 0.0 0.00 0.00 0.00 85 1009.1
20260506082516 12 0.0 0.0 0.00 0.00 0.00 84 1009.0
20260506081516 13 247 0.0 1.6 0.00 0.00 0.00 83 1009.0
20260506080536 13 229 0.0 0.0 0.00 0.00 0.00 82 1009.0
20260506073516 13 17 0.0 4.8 0.00 0.00 0.00 80 1009.0
20260506072537 14 3 0.0 1.6 0.00 0.00 0.00 79 1008.8
20260506071557 14 3 0.0 4.8 0.00 0.00 0.00 77 1008.8
20260506070517 14 0.0 0.0 0.00 0.00 0.00 77 1008.7
20260506061518 15 278 0.0 1.6 0.00 0.00 0.00 76 1008.6
20260506060538 15 0.0 0.0 0.00 0.00 0.00 76 1008.6